Date,TemperatureHighF,TemperatureAvgF,TemperatureLowF,DewpointHighF,DewpointAvgF,DewpointLowF,HumidityHigh,HumidityAvg,HumidityLow,PressureMaxIn,PressureMinIn,WindSpeedMaxMPH,WindSpeedAvgMPH,GustSpeedMaxMPH,PrecipitationSumIn
2013-1-1,13,5,-2,4,0,-5,92,80,67,30.20,30.09,4,1,9,0.00
2013-1-2,22,16,4,15,10,-1,92,77,59,30.10,30.00,7,2,12,0.00
2013-1-3,24,20,11,19,16,7,85,83,81,30.16,30.00,7,2,12,0.00
2013-1-4,28,16,8,19,12,4,89,81,68,30.14,30.02,7,2,16,0.03
2013-1-5,34,22,9,32,19,6,93,88,80,30.17,29.81,9,3,15,0.02
2013-1-6,34,24,13,31,20,10,90,83,74,30.23,29.81,7,3,16,0.03
2013-1-7,34,23,10,26,18,7,90,81,66,30.22,29.98,14,4,24,0.02
2013-1-8,37,29,16,31,25,14,93,85,75,30.06,29.88,9,2,18,0.21
2013-1-9,39,33,22,32,26,17,86,77,61,30.41,29.86,11,4,20,0.17
2013-1-10,40,32,19,33,27,16,94,83,71,30.45,29.83,5,1,10,0.33
2013-1-11,43,38,34,42,37,33,97,96,94,29.84,29.56,7,1,12,0.35
2013-1-12,45,34,23,43,29,16,97,80,71,29.96,29.56,11,5,23,0.01
2013-1-13,22,16,13,16,9,6,80,74,68,30.15,29.87,9,4,18,0.00
2013-1-14,23,13,7,11,7,2,85,74,58,30.40,30.15,7,2,15,0.00
2013-1-15,28,17,8,16,11,5,89,77,58,30.37,30.02,10,2,19,0.00
2013-1-16,32,24,14,28,19,9,88,79,67,30.03,29.71,11,4,22,0.00
2013-1-17,26,19,14,17,8,2,76,63,50,30.35,30.02,7,2,14,0.00
2013-1-18,39,28,12,32,22,6,84,78,72,30.36,29.76,16,6,31,0.00
2013-1-19,43,35,14,35,28,2,88,76,47,29.90,29.59,16,5,32,0.00
2013-1-20,13,9,5,2,-1,-3,72,63,52,30.26,29.90,11,4,28,0.00
2013-1-21,8,1,-5,2,-8,-14,80,67,57,30.23,30.07,10,4,23,0.00
2013-1-22,5,-2,-7,-5,-10,-15,72,66,57,30.30,30.22,8,3,16,0.00
2013-1-23,16,9,0,12,3,-7,85,76,66,30.37,30.03,8,2,20,0.00
2013-1-24,15,6,-2,9,-2,-8,76,70,62,30.60,30.29,6,1,14,0.00
2013-1-25,23,18,14,17,12,6,87,77,61,30.29,29.88,10,3,16,0.00
2013-1-26,23,15,6,14,8,2,83,74,62,30.35,30.14,4,1,10,0.01
2013-1-27,32,27,22,31,22,13,100,82,69,30.29,29.82,7,2,13,0.01
2013-1-28,37,33,31,33,31,29,96,92,84,29.92,29.74,4,1,10,0.33
2013-1-29,50,40,34,49,39,33,98,96,91,29.75,29.45,5,2,12,1.04
2013-1-30,35,27,14,34,25,11,97,94,87,29.53,29.28,8,3,18,0.28
2013-1-31,15,7,0,12,3,-5,87,82,79,30.06,29.53,8,5,19,0.00
2013-2-1,4,-1,-6,1,-6,-11,86,78,72,30.25,30.06,7,3,15,0.00
2013-2-2,11,6,1,4,1,-3,97,81,72,30.08,29.97,5,1,10,0.00
2013-2-3,18,10,0,11,5,-4,88,80,71,29.98,29.88,10,2,16,0.00
2013-2-4,15,11,5,10,6,0,88,79,62,29.97,29.89,6,2,11,0.00
2013-2-5,27,16,1,23,12,-3,90,83,76,30.05,29.71,8,2,14,0.00
2013-2-6,31,13,2,26,10,-1,99,87,80,30.16,30.03,1,0,8,0.00
2013-2-7,33,30,20,31,28,18,94,92,85,30.05,29.89,7,1,14,0.10
2013-2-8,24,18,7,19,15,4,92,87,81,30.35,30.04,6,2,13,0.06
2013-2-9,27,20,3,24,17,0,93,88,84,30.36,30.04,9,3,19,0.01
2013-2-10,40,32,21,39,31,19,100,94,90,30.04,29.34,10,2,22,0.19
2013-2-11,37,31,26,35,26,20,91,83,76,29.93,29.35,11,7,26,0.03
2013-2-12,27,23,18,21,18,15,90,80,73,30.03,29.82,6,3,19,0.00
2013-2-13,36,26,15,29,22,13,93,86,74,29.82,29.63,8,1,12,0.00
2013-2-14,34,32,25,32,28,21,94,87,75,29.96,29.52,9,2,20,0.11
2013-2-15,25,18,11,22,10,3,88,69,53,30.15,29.96,6,3,13,0.01
2013-2-16,17,11,4,4,1,-2,78,65,50,30.14,30.09,7,1,13,0.00
2013-2-17,24,12,-2,15,4,-6,85,69,54,30.16,29.88,8,1,14,0.00
2013-2-18,42,32,24,36,26,15,93,79,69,29.88,29.41,8,3,15,0.10
2013-2-19,26,13,7,24,8,0,92,80,70,30.11,29.47,9,5,18,0.10
2013-2-20,22,12,4,11,5,-2,78,71,61,30.34,30.11,7,2,13,0.04
2013-2-21,25,17,8,22,13,3,92,84,74,30.40,30.05,9,3,22,0.01
2013-2-22,30,26,22,28,24,20,93,91,83,30.05,29.74,9,2,21,0.08
2013-2-23,30,25,20,23,21,16,90,84,76,29.88,29.78,8,2,13,0.07
2013-2-24,34,24,16,26,20,13,92,83,73,30.09,29.88,5,1,9,0.37
2013-2-25,37,27,17,28,22,15,91,82,66,30.13,30.01,4,0,8,0.28
2013-2-26,33,30,25,28,26,22,94,86,75,30.02,29.61,13,6,30,0.20
2013-2-27,31,29,27,29,28,25,94,93,92,29.75,29.59,8,4,18,0.02
2013-2-28,33,29,23,29,25,18,94,84,76,30.11,29.75,8,4,16,0.02
2013-3-1,27,22,15,20,17,9,88,81,70,30.22,30.09,10,2,16,0.01
2013-3-2,25,16,9,15,10,4,85,75,65,30.21,30.12,6,2,14,0.01
2013-3-3,26,18,6,12,7,3,86,64,45,30.12,30.06,5,1,9,0.03
2013-3-4,33,22,10,24,16,5,85,77,66,30.09,30.01,7,2,14,0.01
2013-3-5,30,27,24,26,24,22,93,88,76,30.06,29.86,9,4,19,0.01
2013-3-6,31,28,24,27,24,20,91,87,81,30.27,30.06,6,3,12,0.08
2013-3-7,32,23,13,23,18,10,89,79,67,30.39,30.27,5,1,8,0.25
2013-3-8,37,27,15,28,22,12,90,80,68,30.42,30.25,9,2,15,0.03
2013-3-9,40,34,27,34,30,23,93,84,72,30.25,29.76,6,1,15,0.03
2013-3-10,39,36,34,38,35,33,96,95,93,29.79,29.60,11,3,22,0.96
2013-3-11,34,32,29,33,31,25,96,95,90,29.70,29.51,8,2,15,0.54
2013-3-12,32,28,24,25,22,18,91,79,65,29.96,29.70,8,4,19,0.03
2013-3-13,33,25,18,19,13,10,81,63,41,30.26,29.96,9,4,18,0.01
2013-3-14,33,25,16,25,18,10,88,73,60,30.26,30.01,8,2,13,0.01
2013-3-15,34,30,25,32,27,22,93,90,85,30.01,29.80,6,2,12,0.05
2013-3-16,30,25,19,25,19,15,92,81,66,30.10,29.79,7,3,14,0.02
2013-3-17,31,22,14,19,13,6,79,69,58,30.24,29.98,7,3,14,0.01
2013-3-18,31,27,17,29,23,11,91,86,76,29.98,29.52,10,2,23,0.17
2013-3-19,29,19,13,14,10,7,79,67,48,29.98,29.66,11,6,23,0.02
2013-3-20,20,14,8,8,3,-2,65,61,54,30.02,29.97,11,4,18,0.02
2013-3-21,29,18,9,14,8,2,75,64,51,30.01,29.96,7,2,12,0.00
2013-3-22,34,22,13,18,12,6,76,67,49,30.04,29.98,4,1,8,0.00
2013-3-23,36,26,17,22,18,13,85,70,54,30.11,30.03,6,1,10,0.00
2013-3-24,30,29,27,27,24,21,91,84,75,30.04,29.77,9,4,19,0.04
2013-3-25,34,29,22,26,23,17,84,76,69,30.06,29.80,7,3,15,0.01
2013-3-26,41,35,30,29,26,23,77,69,58,30.21,30.06,6,2,11,0.00
2013-3-27,42,35,28,27,24,21,75,64,46,30.28,30.21,6,2,12,0.01
2013-3-28,44,34,26,27,22,19,75,62,40,30.31,30.25,6,1,10,0.00
2013-3-29,45,33,23,28,23,19,87,69,48,30.30,30.19,4,0,7,0.00
2013-3-30,51,40,31,40,31,-100,90,74,62,30.19,29.78,11,2,16,0.02
2013-3-31,46,38,32,40,33,20,93,82,60,29.87,29.68,10,4,19,0.01
2013-4-1,35,30,25,21,16,12,70,56,42,30.14,29.87,8,4,18,0.01
2013-4-2,38,30,23,18,16,13,70,55,35,30.28,30.14,8,3,16,0.00
2013-4-3,42,33,23,23,18,13,76,55,36,30.44,30.24,8,2,12,0.00
2013-4-4,56,41,29,37,28,20,71,60,45,30.24,29.92,10,4,22,0.00
2013-4-5,45,37,28,28,25,21,78,62,43,30.23,30.01,7,2,11,0.00
2013-4-6,58,45,33,49,35,20,91,69,52,30.13,29.51,15,4,26,0.05
2013-4-7,51,42,36,48,35,30,91,76,60,29.93,29.52,10,3,25,0.04
2013-4-8,47,41,35,43,37,30,93,86,79,29.98,29.61,8,2,19,0.46
2013-4-9,39,37,35,38,36,33,95,94,90,30.02,29.87,9,4,18,1.10
2013-4-10,37,34,31,34,32,29,94,92,85,30.08,29.88,12,5,21,1.04
2013-4-11,37,35,34,35,33,31,94,93,89,29.92,29.56,14,7,25,0.37
2013-4-12,39,35,33,36,33,30,95,91,84,29.75,29.50,5,2,11,0.19
2013-4-13,36,34,30,30,28,25,91,78,67,29.96,29.74,8,4,16,0.04
2013-4-14,52,37,29,46,32,24,89,84,75,29.98,29.55,9,3,18,0.07
2013-4-15,60,48,41,51,43,37,96,83,51,29.93,29.53,14,4,26,0.67
2013-4-16,51,42,34,37,32,28,84,70,50,30.27,29.92,8,2,15,0.08
2013-4-17,42,40,37,40,36,32,92,85,75,30.31,29.86,10,3,20,0.13
2013-4-18,54,45,39,53,43,34,96,94,84,29.88,29.28,14,3,33,0.74
2013-4-19,39,35,30,34,28,21,84,76,64,29.86,29.31,12,8,31,0.02
2013-4-20,44,34,27,25,18,14,76,54,30,30.37,29.86,9,3,21,0.01
2013-4-21,51,40,30,34,28,24,81,64,46,30.47,30.24,9,2,18,0.00
2013-4-22,66,52,41,45,38,32,75,60,44,30.24,29.98,9,4,19,0.00
2013-4-23,52,43,38,47,36,29,90,76,60,29.98,29.85,9,3,18,0.01
2013-4-24,52,42,33,32,27,23,77,56,34,30.00,29.93,7,3,16,0.01
2013-4-25,51,44,36,36,32,28,89,65,44,30.25,29.93,9,4,23,0.04
2013-4-26,68,53,36,48,39,29,77,61,45,30.25,30.10,16,6,28,0.00
2013-4-27,65,56,45,50,46,41,90,71,51,30.21,29.99,9,3,15,0.00
2013-4-28,72,58,44,50,44,39,84,62,39,29.99,29.77,6,1,14,0.00
2013-4-29,69,59,51,58,52,48,91,79,58,29.82,29.70,8,2,16,0.02
2013-4-30,85,71,59,63,56,52,93,65,34,29.86,29.66,17,6,28,0.14
2013-5-1,80,67,54,60,53,44,72,61,47,30.21,29.86,7,3,18,0.08
2013-5-2,54,45,37,46,39,34,90,78,66,30.28,30.17,10,4,20,0.24
2013-5-3,47,41,35,45,38,32,94,93,89,30.22,29.98,9,3,16,0.58
2013-5-4,72,57,46,54,48,44,94,75,46,30.04,29.96,7,2,15,0.04
2013-5-5,73,60,47,51,46,42,89,62,38,30.06,29.99,7,2,13,0.00
2013-5-6,75,61,48,51,45,40,78,57,31,30.07,29.97,6,1,10,0.00
2013-5-7,79,65,52,47,43,39,73,47,26,30.06,29.97,4,1,0,0.00
2013-5-8,81,66,49,51,47,41,82,54,25,30.03,29.93,5,1,7,0.00
2013-5-9,68,58,46,59,51,44,94,78,61,29.95,29.88,8,2,15,0.97
2013-5-10,50,44,40,45,39,-100,94,90,81,29.98,29.86,9,3,19,1.68
2013-5-11,52,46,40,49,36,-100,96,73,40,30.01,29.76,11,4,24,0.01
2013-5-12,54,44,36,33,28,25,75,53,34,30.09,30.01,8,4,21,0.00
2013-5-13,61,47,31,38,33,28,91,62,33,30.16,29.89,8,2,11,0.00
2013-5-14,83,67,48,59,50,35,70,55,40,29.89,29.52,9,3,21,0.00
2013-5-15,77,70,61,62,48,41,66,47,28,29.84,29.53,6,2,13,0.00
2013-5-16,82,61,54,55,28,-100,77,51,35,29.97,29.83,5,1,13,0.00
2013-5-17,60,54,48,51,40,-100,93,71,37,30.11,29.96,7,2,18,0.70
2013-5-18,79,65,52,66,56,46,88,75,59,30.05,29.92,5,1,9,0.00
2013-5-19,85,70,59,68,62,56,91,76,54,29.94,29.64,14,2,24,0.04
2013-5-20,82,74,63,63,61,57,89,66,50,29.78,29.62,12,4,23,0.05
2013-5-21,78,70,63,65,60,56,87,72,53,29.68,29.59,9,4,19,0.00
2013-5-22,63,60,53,60,57,52,95,91,81,29.77,29.62,6,1,11,1.12
2013-5-23,60,52,44,52,44,36,95,77,42,30.29,29.77,9,3,16,0.92
2013-5-24,63,50,37,45,38,34,91,68,43,30.43,30.29,5,1,8,0.00
2013-5-25,63,54,45,42,39,35,75,57,41,30.38,30.28,7,1,12,0.00
2013-5-26,67,55,41,46,42,35,81,62,45,30.30,30.15,5,1,12,0.00
2013-5-27,55,53,50,52,47,40,94,80,58,30.16,29.89,7,2,20,0.03
2013-5-28,72,51,50,67,38,-100,97,81,82,29.89,29.69,4,1,14,0.56
2013-5-29,82,63,59,69,45,-100,96,70,63,29.89,29.76,9,2,19,0.04
2013-5-30,84,66,64,71,49,-100,95,71,59,29.89,29.70,15,4,27,0.67
2013-5-31,75,68,63,67,63,61,94,85,67,29.78,29.67,10,5,20,0.54
2013-6-1,78,63,63,66,45,-100,95,72,61,29.67,29.59,10,3,23,0.71
2013-6-2,64,56,49,58,46,41,88,70,51,30.00,29.66,8,2,16,0.30
2013-6-3,70,58,43,49,45,41,94,64,41,30.08,29.99,5,1,11,0.00
2013-6-4,70,60,51,55,49,45,91,69,51,30.16,30.06,7,1,14,0.10
2013-6-5,64,55,51,55,50,47,92,85,67,30.14,29.95,5,1,12,0.30
2013-6-6,60,54,51,54,51,47,95,89,80,29.96,29.92,5,1,11,0.44
2013-6-7,72,60,51,53,50,47,90,72,42,29.98,29.91,6,1,9,0.07
2013-6-8,72,62,52,54,51,46,88,69,45,30.00,29.91,5,1,9,0.01
2013-6-9,79,67,56,63,56,48,81,68,55,30.01,29.81,7,2,16,0.00
2013-6-10,81,70,61,66,62,58,90,76,58,29.83,29.76,4,1,9,0.00
2013-6-11,83,72,60,67,64,58,95,76,56,29.91,29.78,5,1,10,0.00
2013-6-12,76,68,60,68,64,58,95,88,75,29.90,29.62,10,2,25,1.18
2013-6-13,77,67,58,61,58,55,95,73,51,30.06,29.73,6,1,11,1.16
2013-6-14,78,66,54,61,55,50,94,71,53,30.14,29.99,5,1,11,0.00
2013-6-15,79,67,56,71,61,-100,95,83,67,30.07,29.80,7,2,13,1.07
2013-6-16,84,49,66,66,-1,-100,82,33,37,29.89,29.82,7,2,15,0.72
2013-6-17,86,72,60,63,58,52,83,64,36,29.97,29.85,8,2,16,0.00
2013-6-18,72,62,53,57,51,46,86,68,41,30.09,29.96,9,2,15,0.00
2013-6-19,78,64,48,56,50,45,89,62,39,30.14,30.06,7,1,12,0.00
2013-6-20,86,67,56,65,52,43,71,59,41,30.14,30.07,7,2,13,0.00
2013-6-22,79,58,68,72,31,-100,92,63,77,30.09,29.87,6,2,14,0.38
2013-6-23,85,48,69,75,4,-100,90,46,66,30.01,29.84,10,3,19,0.20
2013-6-24,80,47,69,71,5,-100,92,49,70,30.00,29.82,8,2,16,0.01
2013-6-25,83,40,69,74,-12,-100,92,41,69,29.93,29.78,6,1,13,0.44
2013-6-26,83,33,71,71,-29,-100,90,32,65,29.80,29.70,6,1,11,0.06
2013-6-27,86,49,70,73,5,-100,91,45,60,29.78,29.67,6,1,14,0.41
2013-6-28,76,71,65,66,63,60,91,77,61,29.72,29.61,7,2,16,0.05
2013-6-29,72,31,64,63,-30,-100,91,32,66,29.84,29.62,6,1,15,0.58
2013-6-30,77,68,57,60,54,48,79,62,39,30.04,29.83,7,2,16,0.00
2013-7-1,80,70,59,59,53,49,73,58,38,30.12,30.04,8,2,16,0.00
2013-7-2,75,66,58,54,50,46,83,59,38,30.12,30.07,7,2,14,0.00
2013-7-3,71,65,60,64,55,-100,93,77,66,30.08,30.01,6,1,12,0.07
2013-7-4,82,47,68,63,-3,-100,80,35,46,30.08,30.00,7,1,13,0.07
2013-7-5,84,74,63,68,64,60,92,72,52,30.06,29.98,10,2,20,0.01
2013-7-6,85,74,63,69,64,60,92,73,52,30.03,29.93,7,2,12,0.00
2013-7-7,87,72,66,73,55,-100,93,69,60,29.97,29.89,7,2,14,0.00
2013-7-8,86,48,72,76,7,-100,93,52,68,29.98,29.88,7,1,20,0.67
2013-7-9,84,24,77,75,-48,-100,89,24,74,30.00,29.80,10,2,15,0.56
2013-7-10,79,60,66,70,30,-100,88,52,49,30.01,29.82,7,2,15,0.01
2013-7-11,81,68,57,61,52,-100,93,64,45,30.11,30.01,5,1,8,0.00
2013-7-12,84,71,57,61,56,49,90,63,31,30.16,30.07,5,1,10,0.00
2013-7-13,85,72,59,65,60,54,87,66,48,30.16,30.08,7,1,12,0.00
2013-7-14,89,77,63,71,65,58,87,69,51,30.22,30.14,5,1,10,0.00
2013-7-15,92,79,68,76,70,64,89,74,54,30.27,30.21,4,0,11,0.00
2013-7-16,92,64,74,77,32,-100,91,55,59,30.28,30.21,5,1,10,0.00
2013-7-17,94,72,75,77,48,-100,91,61,53,30.29,30.14,6,1,11,0.00
2013-7-18,93,65,75,76,31,-100,91,51,53,30.16,29.88,8,2,16,0.00
2013-7-19,92,82,75,75,71,65,86,69,51,29.88,29.72,9,4,18,0.00
2013-7-20,85,74,65,69,62,-100,80,67,49,29.97,29.82,4,1,9,0.01
2013-7-21,81,52,60,68,22,-100,93,57,58,29.97,29.88,7,1,15,1.10
2013-7-22,84,40,76,72,-15,-100,81,35,63,29.89,29.62,10,2,18,0.00
2013-7-23,75,70,59,65,58,52,84,67,54,30.00,29.70,7,2,13,0.00
2013-7-24,74,64,53,55,52,50,90,68,46,30.08,29.99,4,1,9,0.00
2013-7-25,79,67,54,65,59,51,92,77,60,30.06,29.95,8,2,14,0.00
2013-7-26,76,63,62,68,48,-100,92,74,54,29.96,29.81,8,2,16,0.40
2013-7-27,61,56,51,56,48,45,88,76,62,29.94,29.85,6,2,16,0.02
2013-7-28,67,58,52,54,51,48,91,78,61,29.99,29.82,6,2,14,0.02
2013-7-29,74,63,54,59,54,49,86,74,58,30.17,29.99,4,1,14,0.00
2013-7-30,75,55,56,64,32,-100,93,65,62,30.18,30.08,5,1,11,0.00
2013-7-31,79,46,63,66,2,-100,92,47,61,30.09,29.94,8,1,15,0.00
2013-8-1,79,69,61,61,57,54,90,69,43,29.98,29.89,6,2,15,0.00
2013-8-2,81,62,60,66,39,-100,93,58,44,29.95,29.83,6,1,12,0.13
2013-8-3,78,69,56,58,54,51,89,62,42,30.11,29.95,5,1,13,0.12
2013-8-4,76,66,56,58,55,52,90,69,46,30.22,30.11,4,1,8,0.00
2013-8-5,73,62,55,63,54,-100,92,81,70,30.11,29.85,8,2,16,0.01
2013-8-6,84,51,65,70,8,-100,91,47,59,29.86,29.76,7,2,12,0.01
2013-8-7,78,67,66,69,52,-100,90,69,63,29.96,29.73,7,1,14,0.00
2013-8-8,79,61,62,61,38,-100,91,59,49,30.04,29.96,7,1,10,0.00
2013-8-9,82,69,58,64,57,51,80,67,47,30.05,29.96,5,1,11,0.00
2013-8-10,75,67,57,58,55,53,87,68,50,30.15,30.05,4,0,10,0.00
2013-8-11,70,33,57,65,-21,-100,92,43,81,30.13,30.02,5,0,8,0.22
2013-8-12,81,37,63,65,-21,-100,81,31,55,30.03,29.89,5,1,12,0.09
2013-8-13,71,61,52,58,48,-100,84,65,48,30.16,29.99,6,2,14,0.02
2013-8-14,73,60,48,54,48,-100,92,70,47,30.22,30.11,5,1,8,0.00
2013-8-15,77,58,54,58,38,-100,90,66,44,30.14,30.08,4,0,8,0.00
2013-8-16,82,67,55,60,52,-100,92,65,41,30.19,30.11,4,1,9,0.00
2013-8-17,81,67,55,60,54,-100,91,68,43,30.25,30.15,5,1,10,0.00
2013-8-18,81,60,55,61,35,-100,93,59,45,30.22,30.09,6,1,12,0.00
2013-8-19,82,48,57,65,7,-100,92,51,51,30.09,30.00,6,1,13,0.00
2013-8-20,86,45,62,68,-2,-100,91,42,53,30.07,29.98,8,2,18,0.00
2013-8-21,89,77,68,72,68,64,88,75,57,30.01,29.89,9,3,19,0.00
2013-8-22,81,55,63,71,24,-100,89,58,61,30.12,29.98,5,1,14,0.10
2013-8-23,83,70,57,63,58,51,87,68,47,30.19,30.11,6,0,10,0.00
2013-8-24,83,56,57,69,24,-100,91,56,59,30.25,30.15,10,1,14,0.00
2013-8-25,89,77,66,74,67,60,87,72,58,30.18,30.07,12,3,22,0.00
2013-8-26,90,78,67,77,70,64,89,76,62,30.12,29.93,8,2,15,0.00
2013-8-27,93,48,73,77,3,-100,89,45,58,29.95,29.79,9,2,19,0.00
2013-8-28,84,79,69,71,69,65,89,74,64,30.04,29.99,5,1,12,0.00
2013-8-29,87,37,68,71,-22,-100,90,32,58,30.08,29.96,6,1,16,0.00
2013-8-30,90,50,67,78,7,-100,90,49,66,29.97,29.76,6,2,14,0.00
2013-8-31,81,70,62,66,61,-100,89,77,61,29.88,29.78,5,1,9,0.00
2013-9-1,84,28,64,71,-41,-100,89,24,48,29.82,29.69,6,1,13,0.00
2013-9-2,70,64,57,61,56,50,86,75,57,30.00,29.82,5,1,10,0.00
2013-9-3,75,58,48,56,43,-100,92,67,50,30.09,29.98,5,1,10,0.00
2013-9-4,84,48,50,65,10,-100,92,50,51,30.13,30.01,4,1,9,0.00
2013-9-5,76,66,55,59,54,47,90,69,50,30.27,30.14,7,2,13,0.00
2013-9-6,85,66,48,68,57,45,90,74,55,30.22,29.97,7,2,13,0.00
2013-9-7,88,73,66,72,64,-100,88,78,57,29.99,29.87,4,1,11,0.05
2013-9-8,71,66,61,66,61,56,88,83,77,30.07,29.94,6,2,16,0.00
2013-9-9,90,48,64,77,-9,-100,89,38,62,29.96,29.75,7,2,15,0.01
2013-9-10,95,81,69,70,66,63,85,63,39,29.94,29.79,9,2,21,0.00
2013-9-11,81,43,69,68,-5,-100,91,43,61,30.08,29.94,6,1,18,0.54
2013-9-12,74,47,58,63,9,-100,90,46,48,30.13,29.96,6,1,14,0.00
2013-9-13,64,55,47,46,43,40,84,65,41,30.22,30.14,6,2,13,0.00
2013-9-14,70,55,40,49,43,-100,91,69,45,30.16,29.98,5,1,12,0.00
2013-9-15,62,36,52,56,-6,-100,91,51,70,30.23,29.97,7,1,13,0.54
2013-9-16,64,53,43,49,44,39,86,72,52,30.40,30.23,7,2,12,0.01
2013-9-17,69,56,42,54,48,38,90,77,59,30.34,30.09,7,1,12,0.00
2013-9-18,67,55,57,63,44,-100,89,78,82,30.09,29.88,4,1,9,0.03
2013-9-19,84,8,68,73,-82,-100,82,7,67,29.89,29.70,10,2,30,2.34
2013-9-20,72,22,58,60,-46,-100,75,24,65,29.81,29.70,8,2,15,1.97
2013-9-21,59,53,47,50,42,-100,78,69,61,29.94,29.81,7,1,19,0.04
2013-9-22,62,51,41,46,40,35,78,68,50,30.08,29.94,4,1,8,0.00
2013-9-23,68,53,43,53,43,37,78,69,57,30.12,30.02,5,1,11,0.00
2013-9-24,71,40,48,56,2,-100,81,47,56,30.05,29.96,5,1,10,0.01
2013-9-25,71,47,47,55,17,-100,77,54,57,30.00,29.94,5,1,9,0.01
2013-9-26,76,43,49,58,3,-100,73,43,50,30.08,29.98,6,1,10,0.01
2013-9-27,81,54,52,59,19,-100,65,44,46,30.14,30.03,8,1,13,0.00
2013-9-28,80,68,56,62,50,-100,60,55,53,30.05,29.80,12,5,28,0.00
2013-9-29,70,32,52,48,-25,-100,63,27,41,30.06,29.97,4,0,7,0.09
2013-9-30,71,65,56,51,48,40,62,55,46,29.95,29.80,10,4,18,0.00
2013-10-1,71,68,66,55,52,49,57,56,54,29.91,29.87,0,0,5,0.00
2013-10-2,75,55,58,52,22,-100,63,42,33,30.11,29.97,4,1,8,0.00
2013-10-3,62,42,56,46,5,-100,64,44,52,29.97,29.85,1,0,7,0.14
2013-10-4,-200,0,200,-100,-100,-100,0,0,100,30.03,29.86,5,1,11,0.56
2013-10-14,61,56,49,46,41,33,60,57,53,30.39,30.21,6,2,13,0.00
2013-10-15,-200,0,200,-100,-100,-100,0,0,100,29.81,29.71,6,3,15,0.39
2013-10-17,54,50,46,40,36,31,62,58,55,29.85,29.77,6,1,12,0.00
2013-10-18,49,46,44,34,32,29,60,57,54,29.91,29.85,8,2,15,0.00
2013-10-19,52,46,45,36,29,-100,63,56,54,29.76,29.69,7,4,19,0.00
2013-10-20,48,10,47,36,-73,-100,62,12,54,29.82,29.67,6,2,11,0.09
2013-10-21,42,38,33,31,27,24,69,65,58,29.91,29.77,9,4,21,0.09
2013-10-22,46,37,27,32,26,16,70,65,56,29.93,29.87,4,1,9,0.00
2013-10-23,43,36,29,28,24,16,70,62,49,29.97,29.91,7,2,13,0.00
2013-10-24,42,37,31,29,26,20,70,65,57,30.24,29.97,7,2,18,0.00
2013-10-25,50,45,30,32,29,17,70,54,48,30.32,29.85,11,6,24,0.00
2013-10-26,49,45,41,37,30,-100,68,58,49,30.03,29.72,11,4,28,0.00
2013-10-27,54,43,31,34,30,19,69,60,43,30.02,29.86,11,3,20,0.00
2013-10-28,43,39,36,32,28,-100,70,66,62,30.40,30.00,8,3,19,0.00
2013-10-29,53,42,35,42,32,25,70,66,60,30.38,30.16,4,1,9,0.00
2013-10-30,-200,0,200,-100,-100,-100,0,0,100,30.07,29.72,6,1,10,0.00
2013-10-31,-200,0,200,-100,-100,-100,0,0,100,29.73,29.23,9,2,19,0.99
2013-11-1,-200,0,200,-100,-100,-100,48,13,47,29.69,29.27,6,2,20,0.07
2013-11-2,-200,0,200,-100,-100,-100,48,4,48,30.11,29.81,4,1,9,0.08
2013-11-3,50,19,42,39,-43,-100,72,28,59,30.26,30.17,8,1,15,0.00
2013-11-4,53,48,43,43,39,33,71,69,64,30.19,30.00,10,3,23,0.00
2013-11-5,55,10,50,45,-73,-100,69,12,58,30.20,29.83,9,3,21,0.38
2013-11-6,43,10,33,35,-67,-100,75,18,67,30.11,29.67,11,5,20,0.33
2013-11-7,42,35,27,32,27,17,75,72,61,30.19,30.12,5,2,12,0.06
2013-11-8,45,41,29,35,32,19,72,70,64,30.22,29.77,8,3,19,0.00
2013-11-9,51,45,40,40,34,-100,71,66,56,30.02,29.70,13,6,26,0.00
2013-11-10,47,42,39,34,31,29,72,65,51,30.28,30.03,7,3,15,0.00
2013-11-11,43,33,25,34,23,14,74,68,61,30.51,30.02,5,2,12,0.09
2013-11-12,29,24,19,18,15,12,75,68,52,30.67,30.51,7,2,15,0.02
2013-11-13,41,29,18,21,17,11,75,60,39,30.50,30.01,14,5,28,0.00
2013-11-14,46,38,29,31,27,20,72,65,53,30.00,29.83,9,4,20,0.00
2013-11-15,54,42,31,40,32,19,71,67,59,29.89,29.83,8,2,13,0.00
2013-11-16,56,1,56,-100,-100,-100,47,1,47,29.74,29.44,13,8,29,0.05
2013-11-17,44,7,41,36,-77,-100,73,12,66,29.61,29.13,12,4,27,0.92
2013-11-18,40,34,27,32,26,20,76,72,68,30.21,29.62,12,6,27,0.01
2013-11-19,39,30,21,28,21,11,76,68,61,30.33,30.21,6,1,9,0.00
2013-11-20,41,38,31,31,28,20,72,68,62,30.19,30.06,10,3,18,0.00
2013-11-21,43,42,41,33,31,29,68,66,62,30.17,30.11,2,0,6,0.00
2013-11-22,34,30,26,25,21,14,73,68,61,30.43,30.36,6,3,12,0.04
2013-11-23,26,17,12,17,6,-100,70,62,55,30.66,30.35,8,4,18,0.00
2013-11-24,25,18,9,10,6,3,77,62,43,30.65,30.21,12,4,22,0.00
2013-11-25,31,26,20,23,16,9,74,66,59,30.19,29.95,11,5,26,0.00
2013-11-27,26,19,12,16,11,5,76,70,56,30.22,30.15,7,2,13,0.00
2013-11-28,28,23,16,18,15,9,75,72,64,30.46,30.11,6,1,11,0.00
2013-11-29,29,22,10,20,13,1,73,69,63,30.58,30.30,9,1,12,0.00
2013-11-30,42,33,27,32,23,-100,72,68,63,30.30,29.99,11,3,16,0.01
2013-12-1,39,33,26,29,23,16,72,68,60,30.11,29.95,5,0,8,0.00
2013-12-2,40,38,28,31,28,16,72,69,60,29.94,29.75,2,0,9,0.00
2013-12-3,-200,0,200,-100,-100,-100,48,2,48,29.72,29.66,5,2,10,0.32
2013-12-4,-200,0,200,-100,-100,-100,0,0,100,29.72,29.39,10,3,25,0.04
2013-12-5,34,16,14,27,-15,-100,76,54,64,30.22,29.57,10,5,20,0.01